"Datum/tijd (MET/MEZT)";"deininghoogte"
2024-03-14 03:00;3
2024-03-14 03:10;3
2024-03-14 03:20;4
2024-03-14 03:30;4
2024-03-14 03:40;3
2024-03-14 03:50;3
2024-03-14 04:00;3
2024-03-14 04:10;3
2024-03-14 04:20;3
2024-03-14 04:30;3
2024-03-14 04:40;4
2024-03-14 04:50;3
2024-03-14 05:00;3
2024-03-14 05:10;3
2024-03-14 05:20;3
2024-03-14 05:30;3
2024-03-14 05:40;3
2024-03-14 05:50;3
2024-03-14 06:00;3
2024-03-14 06:10;3
2024-03-14 06:20;3
2024-03-14 06:30;3
2024-03-14 06:40;3
2024-03-14 06:50;3
2024-03-14 07:00;3
2024-03-14 07:10;3
2024-03-14 07:20;3
2024-03-14 07:30;3
2024-03-14 07:40;3
2024-03-14 07:50;3
2024-03-14 08:00;3
2024-03-14 08:10;3
2024-03-14 08:20;3
2024-03-14 08:30;4
2024-03-14 08:40;4
2024-03-14 08:50;3
2024-03-14 09:00;4
2024-03-14 09:10;4
2024-03-14 09:20;4
2024-03-14 09:30;4
2024-03-14 09:40;4
2024-03-14 09:50;4
2024-03-14 10:00;4
2024-03-14 10:10;5
2024-03-14 10:20;5
2024-03-14 10:30;5
2024-03-14 10:40;4
2024-03-14 10:50;4
2024-03-14 11:00;5
2024-03-14 11:10;4
2024-03-14 11:20;5
2024-03-14 11:30;5
2024-03-14 11:40;5
2024-03-14 11:50;5
2024-03-14 12:00;4
2024-03-14 12:10;4
2024-03-14 12:20;4
2024-03-14 12:30;4
2024-03-14 12:40;4
2024-03-14 12:50;4
2024-03-14 13:00;3
2024-03-14 13:10;3
2024-03-14 13:20;3
2024-03-14 13:30;3
2024-03-14 13:40;3
2024-03-14 13:50;3
2024-03-14 14:00;3
2024-03-14 14:10;3
2024-03-14 14:20;3
2024-03-14 14:30;2
2024-03-14 14:40;2
2024-03-14 14:50;3
2024-03-14 15:00;2
2024-03-14 15:10;2
2024-03-14 15:20;2
2024-03-14 15:30;2
2024-03-14 15:40;2
2024-03-14 15:50;2
2024-03-14 16:00;3
2024-03-14 16:10;3
2024-03-14 16:20;3
2024-03-14 16:30;3
2024-03-14 16:40;3
2024-03-14 16:50;3
2024-03-14 17:00;3
2024-03-14 17:10;3
2024-03-14 17:20;3
2024-03-14 17:30;3
2024-03-14 17:40;3
2024-03-14 17:50;3
2024-03-14 18:00;3
2024-03-14 18:10;3
2024-03-14 18:20;3
2024-03-14 18:30;3
2024-03-14 18:40;3
2024-03-14 18:50;3
2024-03-14 19:00;3
2024-03-14 19:10;3
2024-03-14 19:20;4
2024-03-14 19:30;4
2024-03-14 19:40;4
2024-03-14 19:50;4
2024-03-14 20:00;4
2024-03-14 20:10;3
2024-03-14 20:20;4
2024-03-14 20:30;4
2024-03-14 20:40;4
2024-03-14 20:50;4
2024-03-14 21:00;4
2024-03-14 21:10;4
2024-03-14 21:20;4
2024-03-14 21:30;4
2024-03-14 21:40;4
2024-03-14 21:50;4
2024-03-14 22:00;4
2024-03-14 22:10;5
2024-03-14 22:20;5
2024-03-14 22:30;5
2024-03-14 22:40;5
2024-03-14 22:50;5
2024-03-14 23:00;5
2024-03-14 23:10;5
2024-03-14 23:20;4
2024-03-14 23:30;4
2024-03-14 23:40;4
2024-03-14 23:50;4
2024-03-15 00:00;4
2024-03-15 00:10;5
2024-03-15 00:20;5
2024-03-15 00:30;5
2024-03-15 00:40;5
2024-03-15 00:50;5
2024-03-15 01:00;5
2024-03-15 01:10;5
2024-03-15 01:20;5
2024-03-15 01:30;4
2024-03-15 01:40;4
2024-03-15 01:50;4
2024-03-15 02:00;5
2024-03-15 02:10;5
2024-03-15 02:20;5
2024-03-15 02:30;5
2024-03-15 02:40;5
2024-03-15 02:50;5
2024-03-15 03:00;5
2024-03-15 03:10;6
2024-03-15 03:20;6
2024-03-15 03:30;6
2024-03-15 03:40;6
2024-03-15 03:50;6
2024-03-15 04:00;6
2024-03-15 04:10;6
2024-03-15 04:20;6
2024-03-15 04:30;7
2024-03-15 04:40;7
2024-03-15 04:50;6
2024-03-15 05:00;6
2024-03-15 05:10;6
2024-03-15 05:20;6
2024-03-15 05:30;6
2024-03-15 05:40;6
2024-03-15 05:50;7
2024-03-15 06:00;6
2024-03-15 06:10;6
2024-03-15 06:20;6
2024-03-15 06:30;6
2024-03-15 06:40;5
2024-03-15 06:50;6
2024-03-15 07:00;6
2024-03-15 07:10;6
2024-03-15 07:20;6
2024-03-15 07:30;6
2024-03-15 07:40;7
2024-03-15 07:50;7
2024-03-15 08:00;8
2024-03-15 08:10;9
2024-03-15 08:20;7
2024-03-15 08:30;6
2024-03-15 08:40;6
2024-03-15 08:50;6
2024-03-15 09:00;6
2024-03-15 09:10;7
2024-03-15 09:20;7
2024-03-15 09:30;8
2024-03-15 09:40;8
2024-03-15 09:50;9
2024-03-15 10:00;9
2024-03-15 10:10;8
2024-03-15 10:20;9
2024-03-15 10:30;9
2024-03-15 10:40;9
2024-03-15 10:50;9
2024-03-15 11:00;10
2024-03-15 11:10;10
2024-03-15 11:20;10
2024-03-15 11:30;10
2024-03-15 11:40;12
2024-03-15 11:50;8
2024-03-15 12:00;7
2024-03-15 12:10;10
2024-03-15 12:20;11
2024-03-15 12:30;11
2024-03-15 12:40;11
2024-03-15 12:50;10
2024-03-15 13:00;10
2024-03-15 13:10;11
2024-03-15 13:20;18
2024-03-15 13:30;18
2024-03-15 13:40;11
2024-03-15 13:50;12
2024-03-15 14:00;12
2024-03-15 14:10;11
2024-03-15 14:20;12
2024-03-15 14:30;12
2024-03-15 14:40;11
2024-03-15 14:50;11
2024-03-15 15:00;11
2024-03-15 15:10;9
2024-03-15 15:20;9
2024-03-15 15:30;11
2024-03-15 15:40;11
2024-03-15 15:50;13
2024-03-15 16:00;12
2024-03-15 16:10;12
2024-03-15 16:20;11
2024-03-15 16:30;10
2024-03-15 16:40;11
2024-03-15 16:50;11
2024-03-15 17:00;10
2024-03-15 17:10;9
2024-03-15 17:20;9
2024-03-15 17:30;10
2024-03-15 17:40;11
2024-03-15 17:50;10
2024-03-15 18:00;10
2024-03-15 18:10;10
2024-03-15 18:20;10
2024-03-15 18:30;10
2024-03-15 18:40;10
2024-03-15 18:50;11
2024-03-15 19:00;11
2024-03-15 19:10;11
2024-03-15 19:20;10
2024-03-15 19:30;10
2024-03-15 19:40;9
2024-03-15 19:50;10
2024-03-15 20:00;10
2024-03-15 20:10;9
2024-03-15 20:20;10
2024-03-15 20:30;9
2024-03-15 20:40;9
2024-03-15 20:50;9
2024-03-15 21:00;9
2024-03-15 21:10;9
2024-03-15 21:20;8
2024-03-15 21:30;8
2024-03-15 21:40;8
2024-03-15 21:50;7
2024-03-15 22:00;8
2024-03-15 22:10;9
2024-03-15 22:20;9
2024-03-15 22:30;10
2024-03-15 22:40;9
2024-03-15 22:50;9
2024-03-15 23:00;9
2024-03-15 23:10;10
2024-03-15 23:20;10
2024-03-15 23:30;11
2024-03-15 23:40;11
2024-03-15 23:50;11
2024-03-16 00:00;10
2024-03-16 00:10;11
2024-03-16 00:20;11
2024-03-16 00:30;10
2024-03-16 00:40;10
2024-03-16 00:50;10
2024-03-16 01:00;11
2024-03-16 01:10;10
2024-03-16 01:20;11
2024-03-16 01:30;12
2024-03-16 01:40;10
2024-03-16 01:50;10
2024-03-16 02:00;11
2024-03-16 02:10;12
2024-03-16 02:20;12
2024-03-16 02:30;11
2024-03-16 02:40;11
2024-03-16 02:50;12
2024-03-16 03:00;13
2024-03-16 03:10;12
2024-03-16 03:20;10
2024-03-16 03:30;12
2024-03-16 03:40;13
2024-03-16 03:50;13
2024-03-16 04:00;13
2024-03-16 04:10;14
2024-03-16 04:20;14
2024-03-16 04:30;14
2024-03-16 04:40;14
2024-03-16 04:50;14
2024-03-16 05:00;15
2024-03-16 05:10;16
2024-03-16 05:20;15
2024-03-16 05:30;16
2024-03-16 05:40;18
2024-03-16 05:50;18
2024-03-16 06:00;19
2024-03-16 06:10;20
2024-03-16 06:20;18
2024-03-16 06:30;16
2024-03-16 06:40;17
2024-03-16 06:50;19
2024-03-16 07:00;20
2024-03-16 07:10;19
2024-03-16 07:20;18
2024-03-16 07:30;19
2024-03-16 07:40;19
2024-03-16 07:50;18
2024-03-16 08:00;19
2024-03-16 08:10;20
2024-03-16 08:20;22
2024-03-16 08:30;22
2024-03-16 08:40;18
2024-03-16 08:50;18
2024-03-16 09:00;19
2024-03-16 09:10;18
2024-03-16 09:20;19
2024-03-16 09:30;17
2024-03-16 09:40;17
2024-03-16 09:50;20
2024-03-16 10:00;21
2024-03-16 10:10;20
2024-03-16 10:20;20
2024-03-16 10:30;18
2024-03-16 10:40;19
2024-03-16 10:50;21
2024-03-16 11:00;20
2024-03-16 11:10;19
2024-03-16 11:20;20
2024-03-16 11:30;20
2024-03-16 11:40;20
2024-03-16 11:50;18
2024-03-16 12:00;19
2024-03-16 12:10;22
2024-03-16 12:20;21
2024-03-16 12:30;21
2024-03-16 12:40;19
2024-03-16 12:50;15
2024-03-16 13:00;16
2024-03-16 13:10;19
2024-03-16 13:20;20
2024-03-16 13:30;18
2024-03-16 13:40;21
2024-03-16 13:50;22
2024-03-16 14:00;20
2024-03-16 14:10;20
2024-03-16 14:20;21
2024-03-16 14:30;24
2024-03-16 14:40;25
2024-03-16 14:50;22
2024-03-16 15:00;24
2024-03-16 15:10;27
2024-03-16 15:20;27
2024-03-16 15:30;24
2024-03-16 15:40;24
2024-03-16 15:50;22
2024-03-16 16:00;25
2024-03-16 16:10;29
2024-03-16 16:20;26
2024-03-16 16:30;26
2024-03-16 16:40;27
2024-03-16 16:50;31
2024-03-16 17:00;31
2024-03-16 17:10;30
2024-03-16 17:20;33
2024-03-16 17:30;32
2024-03-16 17:40;33
2024-03-16 17:50;35
2024-03-16 18:00;40
2024-03-16 18:10;41
2024-03-16 18:20;35
2024-03-16 18:30;33
2024-03-16 18:40;35
2024-03-16 18:50;36
2024-03-16 19:00;36
2024-03-16 19:10;33
2024-03-16 19:20;33
2024-03-16 19:30;35
2024-03-16 19:40;33
2024-03-16 19:50;36
2024-03-16 20:00;36
2024-03-16 20:10;32
2024-03-16 20:20;32
2024-03-16 20:30;34
2024-03-16 20:40;33
2024-03-16 20:50;32
2024-03-16 21:00;30
2024-03-16 21:10;28
2024-03-16 21:20;28
2024-03-16 21:30;27
2024-03-16 21:40;25
2024-03-16 21:50;22
2024-03-16 22:00;23
2024-03-16 22:10;24
2024-03-16 22:20;28
2024-03-16 22:30;29
2024-03-16 22:40;27
2024-03-16 22:50;27
2024-03-16 23:00;24
2024-03-16 23:10;22
2024-03-16 23:20;26
2024-03-16 23:30;30
2024-03-16 23:40;26
2024-03-16 23:50;29
2024-03-17 00:00;36
2024-03-17 00:10;37
2024-03-17 00:20;33
2024-03-17 00:30;32
2024-03-17 00:40;41
2024-03-17 00:50;43
2024-03-17 01:00;38
2024-03-17 01:10;37
2024-03-17 01:20;35
2024-03-17 01:30;33
2024-03-17 01:40;38
2024-03-17 01:50;42
2024-03-17 02:00;42
2024-03-17 02:10;43
2024-03-17 02:20;47
2024-03-17 02:30;45
2024-03-17 02:40;39
2024-03-17 02:50;38
2024-03-17 03:00;50
2024-03-17 03:10;53
2024-03-17 03:20;49
2024-03-17 03:30;46
2024-03-17 03:40;52
2024-03-17 03:50;61
2024-03-17 04:00;64
2024-03-17 04:10;56
2024-03-17 04:20;49
2024-03-17 04:30;55
2024-03-17 04:40;56
2024-03-17 04:50;57
2024-03-17 05:00;55
2024-03-17 05:10;57
2024-03-17 05:20;62
2024-03-17 05:30;59
2024-03-17 05:40;50
2024-03-17 05:50;53
2024-03-17 06:00;59
2024-03-17 06:10;60
2024-03-17 06:20;66
2024-03-17 06:30;59
2024-03-17 06:40;57
2024-03-17 06:50;63
2024-03-17 07:00;49
2024-03-17 07:10;48
2024-03-17 07:20;58
2024-03-17 07:30;62
2024-03-17 07:40;59
2024-03-17 07:50;57
2024-03-17 08:00;52
2024-03-17 08:10;42
2024-03-17 08:20;40
2024-03-17 08:30;35
2024-03-17 08:40;37
2024-03-17 08:50;39
2024-03-17 09:00;34
2024-03-17 09:10;33
2024-03-17 09:20;38
2024-03-17 09:30;38
2024-03-17 09:40;35
2024-03-17 09:50;31
2024-03-17 10:00;29
2024-03-17 10:10;31
2024-03-17 10:20;28
2024-03-17 10:30;28
2024-03-17 10:40;33
2024-03-17 10:50;34
2024-03-17 11:00;29
2024-03-17 11:10;26
2024-03-17 11:20;26
2024-03-17 11:30;23
2024-03-17 11:40;22
2024-03-17 11:50;25
2024-03-17 12:00;27
2024-03-17 12:10;23
2024-03-17 12:20;30
2024-03-17 12:30;30
2024-03-17 12:40;22
2024-03-17 12:50;25
2024-03-17 13:00;24
2024-03-17 13:10;21
2024-03-17 13:20;22
2024-03-17 13:30;23
2024-03-17 13:40;22
2024-03-17 13:50;21
2024-03-17 14:00;20
2024-03-17 14:10;20
2024-03-17 14:20;24
2024-03-17 14:30;27
2024-03-17 14:40;24
2024-03-17 14:50;21
2024-03-17 15:00;18
2024-03-17 15:10;20
2024-03-17 15:20;25
2024-03-17 15:30;25
2024-03-17 15:40;23
2024-03-17 15:50;19
2024-03-17 16:00;20
2024-03-17 16:10;20
2024-03-17 16:20;21
2024-03-17 16:30;23
2024-03-17 16:40;23
2024-03-17 16:50;20
2024-03-17 17:00;23
2024-03-17 17:10;27
2024-03-17 17:20;23
2024-03-17 17:30;25
2024-03-17 17:40;29
2024-03-17 17:50;26
2024-03-17 18:00;27
2024-03-17 18:10;25
2024-03-17 18:20;20
2024-03-17 18:30;27
2024-03-17 18:40;29
2024-03-17 18:50;25
2024-03-17 19:00;26
2024-03-17 19:10;25
2024-03-17 19:20;26
2024-03-17 19:30;25
2024-03-17 19:40;24
2024-03-17 19:50;28
2024-03-17 20:00;26
2024-03-17 20:10;21
2024-03-17 20:20;25
2024-03-17 20:30;26
2024-03-17 20:40;24
2024-03-17 20:50;26
2024-03-17 21:00;27
2024-03-17 21:10;24
2024-03-17 21:20;23
2024-03-17 21:30;20
2024-03-17 21:40;18
2024-03-17 21:50;20
2024-03-17 22:00;19
2024-03-17 22:10;17
2024-03-17 22:20;16
2024-03-17 22:30;17
2024-03-17 22:40;18
2024-03-17 22:50;16
2024-03-17 23:00;13
2024-03-17 23:10;14
2024-03-17 23:20;14
2024-03-17 23:30;12
2024-03-17 23:40;13
2024-03-17 23:50;14
2024-03-18 00:00;13
2024-03-18 00:10;13
2024-03-18 00:20;13
2024-03-18 00:30;12
2024-03-18 00:40;11
2024-03-18 00:50;8
2024-03-18 01:00;10
2024-03-18 01:10;12
2024-03-18 01:20;11
2024-03-18 01:30;9
2024-03-18 01:40;9
2024-03-18 01:50;9
2024-03-18 02:00;10
2024-03-18 02:10;11
2024-03-18 02:20;12
2024-03-18 02:30;10
2024-03-18 02:40;9
2024-03-18 02:50;8
2024-03-18 03:00;9
2024-03-18 03:10;12
2024-03-18 03:20;11
2024-03-18 03:30;9
2024-03-18 03:40;9
2024-03-18 03:50;10
2024-03-18 04:00;9
2024-03-18 04:10;9
2024-03-18 04:20;10
2024-03-18 04:30;11
2024-03-18 04:40;10
2024-03-18 04:50;9
2024-03-18 05:00;9
2024-03-18 05:10;8
2024-03-18 05:20;7
2024-03-18 05:30;9
2024-03-18 05:40;10
2024-03-18 05:50;9
2024-03-18 06:00;9
2024-03-18 06:10;8
2024-03-18 06:20;8
2024-03-18 06:30;8
2024-03-18 06:40;8
2024-03-18 06:50;10
2024-03-18 07:00;10
2024-03-18 07:10;10
2024-03-18 07:20;10
2024-03-18 07:30;9
2024-03-18 07:40;8
2024-03-18 07:50;8
2024-03-18 08:00;10
2024-03-18 08:10;9
2024-03-18 08:20;8
2024-03-18 08:30;8
2024-03-18 08:40;9
2024-03-18 08:50;8
2024-03-18 09:00;8
2024-03-18 09:10;9
2024-03-18 09:20;8
2024-03-18 09:30;9
2024-03-18 09:40;8
2024-03-18 09:50;7
2024-03-18 10:00;8
2024-03-18 10:10;9
2024-03-18 10:20;7
2024-03-18 10:30;7
2024-03-18 10:40;8
2024-03-18 10:50;8
2024-03-18 11:00;7
2024-03-18 11:10;7
2024-03-18 11:20;7
2024-03-18 11:30;7
2024-03-18 11:40;8
2024-03-18 11:50;8
2024-03-18 12:00;7
2024-03-18 12:10;8
2024-03-18 12:20;8
2024-03-18 12:30;7
2024-03-18 12:40;6
2024-03-18 12:50;7
2024-03-18 13:00;7
2024-03-18 13:10;6
2024-03-18 13:20;6
2024-03-18 13:30;6
2024-03-18 13:40;6
2024-03-18 13:50;6
2024-03-18 14:00;6
2024-03-18 14:10;6
2024-03-18 14:20;6
2024-03-18 14:30;5
2024-03-18 14:40;5
2024-03-18 14:50;5
2024-03-18 15:00;5
2024-03-18 15:10;6
2024-03-18 15:20;6
2024-03-18 15:30;5
2024-03-18 15:40;5
2024-03-18 15:50;5
2024-03-18 16:00;5
2024-03-18 16:10;5
2024-03-18 16:20;5
2024-03-18 16:30;5
2024-03-18 16:40;5
2024-03-18 16:50;4
2024-03-18 17:00;4
2024-03-18 17:10;4
2024-03-18 17:20;4
2024-03-18 17:30;4
2024-03-18 17:40;4
2024-03-18 17:50;4
2024-03-18 18:00;4
2024-03-18 18:10;4
2024-03-18 18:20;5
2024-03-18 18:30;5
2024-03-18 18:40;4
2024-03-18 18:50;4
2024-03-18 19:00;4
2024-03-18 19:10;4
2024-03-18 19:20;5
2024-03-18 19:30;5
2024-03-18 19:40;5
2024-03-18 19:50;5
2024-03-18 20:00;4
2024-03-18 20:10;4
2024-03-18 20:20;5
2024-03-18 20:30;5
2024-03-18 20:40;5
2024-03-18 20:50;4
2024-03-18 21:00;5
2024-03-18 21:10;6
2024-03-18 21:20;7
2024-03-18 21:30;6
2024-03-18 21:40;5
2024-03-18 21:50;6
2024-03-18 22:00;6
2024-03-18 22:10;6
2024-03-18 22:20;7
2024-03-18 22:30;7
2024-03-18 22:40;6
2024-03-18 22:50;6
2024-03-18 23:00;6
2024-03-18 23:10;6
2024-03-18 23:20;6
2024-03-18 23:30;6
2024-03-18 23:40;6
2024-03-18 23:50;6
2024-03-19 00:00;6
2024-03-19 00:10;6
2024-03-19 00:20;6
2024-03-19 00:30;5
2024-03-19 00:40;6
2024-03-19 00:50;6
2024-03-19 01:00;6
2024-03-19 01:10;6
2024-03-19 01:20;5
2024-03-19 01:30;5
2024-03-19 01:40;6
2024-03-19 01:50;6
2024-03-19 02:00;6
2024-03-19 02:10;6
2024-03-19 02:20;6
2024-03-19 02:30;6
2024-03-19 02:40;6
2024-03-19 02:50;6
2024-03-19 03:00;7
2024-03-19 03:10;6
2024-03-19 03:20;5
2024-03-19 03:30;6
2024-03-19 03:40;5
2024-03-19 03:50;5
2024-03-19 04:00;5
2024-03-19 04:10;5
2024-03-19 04:20;6
2024-03-19 04:30;6
2024-03-19 04:40;6
2024-03-19 04:50;6
2024-03-19 05:00;6
2024-03-19 05:10;6
2024-03-19 05:20;6
2024-03-19 05:30;6
2024-03-19 05:40;6
2024-03-19 05:50;6
2024-03-19 06:00;5
2024-03-19 06:10;5
2024-03-19 06:20;5
2024-03-19 06:30;6
2024-03-19 06:40;5
2024-03-19 06:50;5
2024-03-19 07:00;5
2024-03-19 07:10;5
2024-03-19 07:20;5
2024-03-19 07:30;6
2024-03-19 07:40;6
2024-03-19 07:50;6
2024-03-19 08:00;6
2024-03-19 08:10;5
2024-03-19 08:20;5
2024-03-19 08:30;5
2024-03-19 08:40;6
2024-03-19 08:50;6
2024-03-19 09:00;6
2024-03-19 09:10;5
2024-03-19 09:20;5
2024-03-19 09:30;6
2024-03-19 09:40;6
2024-03-19 09:50;5
2024-03-19 10:00;6
2024-03-19 10:10;6
2024-03-19 10:20;6
2024-03-19 10:30;7
2024-03-19 10:40;6
2024-03-19 10:50;5
2024-03-19 11:00;6
2024-03-19 11:10;7
2024-03-19 11:20;6
2024-03-19 11:30;5
2024-03-19 11:40;6
2024-03-19 11:50;6
2024-03-19 12:00;6
2024-03-19 12:10;6
2024-03-19 12:20;6
2024-03-19 12:30;6
2024-03-19 12:40;6
2024-03-19 12:50;6
2024-03-19 13:00;5
2024-03-19 13:10;5
2024-03-19 13:20;5
2024-03-19 13:30;5
2024-03-19 13:40;5
2024-03-19 13:50;5
2024-03-19 14:00;5
2024-03-19 14:10;6
2024-03-19 14:20;5
2024-03-19 14:30;5
2024-03-19 14:40;5
2024-03-19 14:50;5
2024-03-19 15:00;5
2024-03-19 15:10;5
2024-03-19 15:20;5
2024-03-19 15:30;5
2024-03-19 15:40;5
2024-03-19 15:50;5
2024-03-19 16:00;5
2024-03-19 16:10;6
2024-03-19 16:20;5
2024-03-19 16:30;5
2024-03-19 16:40;5
2024-03-19 16:50;6
2024-03-19 17:00;6
2024-03-19 17:10;6
2024-03-19 17:20;6
2024-03-19 17:30;6
2024-03-19 17:40;6
2024-03-19 17:50;7
2024-03-19 18:00;5
2024-03-19 18:10;5
2024-03-19 18:20;5
2024-03-19 18:30;6
2024-03-19 18:40;6
2024-03-19 18:50;5
2024-03-19 19:00;5
2024-03-19 19:10;5
2024-03-19 19:20;6
2024-03-19 19:30;5
2024-03-19 19:40;4
2024-03-19 19:50;5
2024-03-19 20:00;5
2024-03-19 20:10;5
2024-03-19 20:20;5
2024-03-19 20:30;5
2024-03-19 20:40;5
2024-03-19 20:50;5
2024-03-19 21:00;5
2024-03-19 21:10;5
2024-03-19 21:20;5
2024-03-19 21:30;5
2024-03-19 21:40;4
2024-03-19 21:50;5
2024-03-19 22:00;6
2024-03-19 22:10;6
2024-03-19 22:20;7
2024-03-19 22:30;6
2024-03-19 22:40;5
2024-03-19 22:50;5
2024-03-19 23:00;5
2024-03-19 23:10;6
2024-03-19 23:20;6
2024-03-19 23:30;6
2024-03-19 23:40;6
2024-03-19 23:50;6
2024-03-20 00:00;6
2024-03-20 00:10;5
2024-03-20 00:20;5
2024-03-20 00:30;5
2024-03-20 00:40;6
2024-03-20 00:50;7
2024-03-20 01:00;6
2024-03-20 01:10;5
2024-03-20 01:20;5
2024-03-20 01:30;5
2024-03-20 01:40;5
2024-03-20 01:50;6
2024-03-20 02:00;6
2024-03-20 02:10;5
2024-03-20 02:20;6
2024-03-20 02:30;6
2024-03-20 02:40;6
2024-03-20 02:50;6
2024-03-20 03:00;6
2024-03-20 03:10;6
2024-03-20 03:20;7
2024-03-20 03:30;6
2024-03-20 03:40;5
2024-03-20 03:50;5
2024-03-20 04:00;6
2024-03-20 04:10;6
2024-03-20 04:20;6
2024-03-20 04:30;6
2024-03-20 04:40;7
2024-03-20 04:50;7
2024-03-20 05:00;6
2024-03-20 05:10;7
2024-03-20 05:20;7
2024-03-20 05:30;7
2024-03-20 05:40;7
2024-03-20 05:50;7
2024-03-20 06:00;7
2024-03-20 06:10;7
2024-03-20 06:20;7
2024-03-20 06:30;7
2024-03-20 06:40;7
2024-03-20 06:50;7
2024-03-20 07:00;7
2024-03-20 07:10;6
2024-03-20 07:20;6
2024-03-20 07:30;6
2024-03-20 07:40;5
2024-03-20 07:50;6
2024-03-20 08:00;7
2024-03-20 08:10;6
2024-03-20 08:20;6
2024-03-20 08:30;6
2024-03-20 08:40;7
2024-03-20 08:50;6
2024-03-20 09:00;6
2024-03-20 09:10;6
2024-03-20 09:20;6
2024-03-20 09:30;6
2024-03-20 09:40;6
2024-03-20 09:50;7
2024-03-20 10:00;6
2024-03-20 10:10;7
2024-03-20 10:20;7
2024-03-20 10:30;7
2024-03-20 10:40;7
2024-03-20 10:50;6
2024-03-20 11:00;7
2024-03-20 11:10;8
2024-03-20 11:20;8
2024-03-20 11:30;8
2024-03-20 11:40;8
2024-03-20 11:50;7
2024-03-20 12:00;7
2024-03-20 12:10;7
2024-03-20 12:20;8
2024-03-20 12:30;9
2024-03-20 12:40;8
2024-03-20 12:50;7
2024-03-20 13:00;8
2024-03-20 13:10;8
2024-03-20 13:20;8
2024-03-20 13:30;9
2024-03-20 13:40;8
2024-03-20 13:50;8
2024-03-20 14:00;8
2024-03-20 14:10;8
2024-03-20 14:20;8
2024-03-20 14:30;7
2024-03-20 14:40;8
2024-03-20 14:50;7
2024-03-20 15:00;8
2024-03-20 15:10;8
2024-03-20 15:20;8
2024-03-20 15:30;9
2024-03-20 15:40;9
2024-03-20 15:50;9
2024-03-20 16:00;9
2024-03-20 16:10;9
2024-03-20 16:20;9
2024-03-20 16:30;8
2024-03-20 16:40;8
2024-03-20 16:50;8
2024-03-20 17:00;7
2024-03-20 17:10;7
2024-03-20 17:20;8
2024-03-20 17:30;9
2024-03-20 17:40;9
2024-03-20 17:50;7
2024-03-20 18:00;8
2024-03-20 18:10;8
2024-03-20 18:20;8
2024-03-20 18:30;8
2024-03-20 18:40;8
2024-03-20 18:50;9
2024-03-20 19:00;10
2024-03-20 19:10;8
2024-03-20 19:20;8
2024-03-20 19:30;10
2024-03-20 19:40;11
2024-03-20 19:50;10
2024-03-20 20:00;9
2024-03-20 20:10;9
2024-03-20 20:20;8
2024-03-20 20:30;10
2024-03-20 20:40;10
2024-03-20 20:50;9
2024-03-20 21:00;10
2024-03-20 21:10;9
2024-03-20 21:20;10
2024-03-20 21:30;9
2024-03-20 21:40;10
2024-03-20 21:50;10
2024-03-20 22:00;9
2024-03-20 22:10;9
2024-03-20 22:20;9
2024-03-20 22:30;10
2024-03-20 22:40;9
2024-03-20 22:50;10
2024-03-20 23:00;11
2024-03-20 23:10;10
2024-03-20 23:20;10
2024-03-20 23:30;10
2024-03-20 23:40;11
2024-03-20 23:50;11
2024-03-21 00:00;12
2024-03-21 00:10;11
2024-03-21 00:20;11
2024-03-21 00:30;11
2024-03-21 00:40;11
2024-03-21 00:50;10
2024-03-21 01:00;11
2024-03-21 01:10;11
2024-03-21 01:20;12
2024-03-21 01:30;15
2024-03-21 01:40;14
2024-03-21 01:50;11
2024-03-21 02:00;10
2024-03-21 02:10;11
2024-03-21 02:20;12
2024-03-21 02:30;11
2024-03-21 02:40;11
2024-03-21 02:50;12
2024-03-21 03:00;12
2024-03-21 03:10;11
2024-03-21 03:20;11
2024-03-21 03:30;10
2024-03-21 03:40;10
2024-03-21 03:50;10
2024-03-21 04:00;11
2024-03-21 04:10;11
2024-03-21 04:20;10
2024-03-21 04:30;10
2024-03-21 04:40;11
2024-03-21 04:50;11
2024-03-21 05:00;11
2024-03-21 05:10;10
2024-03-21 05:20;11
2024-03-21 05:30;11
2024-03-21 05:40;11
2024-03-21 05:50;11
2024-03-21 06:00;11
2024-03-21 06:10;13
2024-03-21 06:20;12
2024-03-21 06:30;12
2024-03-21 06:40;12
2024-03-21 06:50;14
2024-03-21 07:00;14
2024-03-21 07:10;12
2024-03-21 07:20;13
2024-03-21 07:30;14
2024-03-21 07:40;12
2024-03-21 07:50;14
2024-03-21 08:00;15
2024-03-21 08:10;13
2024-03-21 08:20;12
2024-03-21 08:30;11
2024-03-21 08:40;12
2024-03-21 08:50;14
2024-03-21 09:00;15
2024-03-21 09:10;15
2024-03-21 09:20;15
2024-03-21 09:30;14
2024-03-21 09:40;14
2024-03-21 09:50;16
2024-03-21 10:00;17
2024-03-21 10:10;15
2024-03-21 10:20;15
2024-03-21 10:30;16
2024-03-21 10:40;17
2024-03-21 10:50;17
2024-03-21 11:00;15
2024-03-21 11:10;16
2024-03-21 11:20;17
2024-03-21 11:30;17
2024-03-21 11:40;17
2024-03-21 11:50;16
2024-03-21 12:00;16
2024-03-21 12:10;17
2024-03-21 12:20;19
2024-03-21 12:30;18
2024-03-21 12:40;18
2024-03-21 12:50;19
2024-03-21 13:00;20
2024-03-21 13:10;19
2024-03-21 13:20;18
2024-03-21 13:30;18
2024-03-21 13:40;17
2024-03-21 13:50;18
2024-03-21 14:00;18
2024-03-21 14:10;17
2024-03-21 14:20;16
2024-03-21 14:30;17
2024-03-21 14:40;17
2024-03-21 14:50;17
2024-03-21 15:00;17
2024-03-21 15:10;16
2024-03-21 15:20;16
2024-03-21 15:30;16
2024-03-21 15:40;16
2024-03-21 15:50;16
2024-03-21 16:00;17
2024-03-21 16:10;16
2024-03-21 16:20;15
2024-03-21 16:30;15
2024-03-21 16:40;15
2024-03-21 16:50;13
2024-03-21 17:00;14
2024-03-21 17:10;16
2024-03-21 17:20;16
2024-03-21 17:30;15
2024-03-21 17:40;14
2024-03-21 17:50;14
2024-03-21 18:00;14
2024-03-21 18:10;16
2024-03-21 18:20;16
2024-03-21 18:30;14
2024-03-21 18:40;15
2024-03-21 18:50;15
2024-03-21 19:00;14
2024-03-21 19:10;14
2024-03-21 19:20;14
2024-03-21 19:30;14
2024-03-21 19:40;14
2024-03-21 19:50;14
2024-03-21 20:00;16
2024-03-21 20:10;15
2024-03-21 20:20;14
2024-03-21 20:30;14
2024-03-21 20:40;14
2024-03-21 20:50;15
2024-03-21 21:00;16
2024-03-21 21:10;15
2024-03-21 21:20;14
2024-03-21 21:30;14
2024-03-21 21:40;14
2024-03-21 21:50;15
2024-03-21 22:00;16
2024-03-21 22:10;16
2024-03-21 22:20;14
2024-03-21 22:30;14
2024-03-21 22:40;15
2024-03-21 22:50;14
2024-03-21 23:00;13
2024-03-21 23:10;13
2024-03-21 23:20;13
2024-03-21 23:30;13
2024-03-21 23:40;12
2024-03-21 23:50;13
2024-03-22 00:00;14
2024-03-22 00:10;13
2024-03-22 00:20;13
2024-03-22 00:30;15
2024-03-22 00:40;15
2024-03-22 00:50;15
2024-03-22 01:00;15
2024-03-22 01:10;15
2024-03-22 01:20;14
2024-03-22 01:30;14
2024-03-22 01:40;14
2024-03-22 01:50;14
2024-03-22 02:00;14
2024-03-22 02:10;12
2024-03-22 02:20;11
2024-03-22 02:30;12
2024-03-22 02:40;12
2024-03-22 02:50;12
2024-03-22 03:00;12
2024-03-22 03:10;11
2024-03-22 03:20;10
2024-03-22 03:30;8
2024-03-22 03:40;10
2024-03-22 03:50;12
2024-03-22 04:00;11
2024-03-22 04:10;9
2024-03-22 04:20;10
2024-03-22 04:30;11
2024-03-22 04:40;11
2024-03-22 04:50;12
2024-03-22 05:00;12
2024-03-22 05:10;9
2024-03-22 05:20;9
2024-03-22 05:30;10
2024-03-22 05:40;9
2024-03-22 05:50;9